Wind_Speed
10 11 11 10 10 9 10 12 14 16 17 19 20 22 23 26 28 29 34 38 45 47 43 40 38 37 36 38 38 36 33 34 29 27 22 19 24 30 34 39 38 42 46 50 57 58 57
9 11 11 9 9 9 9 10 10 12 14 17 20 21 21 25 29 33 34 42 45 47 48 43 42 39 39 41 40 38 36 30 33 32 31 31 30 33 39 42 45 51 60 63 62 67 72
5 6 7 8 8 9 11 13 15 19 20 21 23 23 23 25 27 29 35 40 46 43 43 42 42 39 39 39 40 39 38 34 32 31 33 38 41 45 50 53 60 66 70 71 74 78 79
6 9 9 9 11 14 16 18 18 19 18 20 24 24 24 27 28 32 34 38 40 42 41 41 41 43 40 41 39 38 37 38 39 38 41 44 48 50 56 63 64 68 70 72 71 75 78
9 9 10 16 17 16 15 16 15 17 17 19 22 25 29 31 31 34 37 38 43 43 45 44 44 42 46 45 45 41 41 41 40 43 45 47 53 57 57 62 64 66 70 72 74 80 83
14 14 14 12 11 11 9 9 12 15 21 23 26 28 31 33 34 37 40 43 45 47 49 48 48 48 48 50 48 48 51 46 43 41 43 46 49 53 58 64 67 71 75 77 82 83 88
7 7 6 6 4 5 10 12 14 17 20 24 29 34 35 35 36 38 40 42 44 49 53 53 51 52 55 53 51 51 52 50 49 53 55 56 57 63 65 67 72 79 81 83 88 91 94
2 2 4 4 6 7 11 9 15 19 23 26 32 37 35 38 37 38 42 44 49 52 53 55 55 53 58 57 52 55 55 53 56 60 62 63 61 66 70 78 84 87 87 90 93 98 102
8 7 6 7 10 10 12 13 13 20 25 28 32 36 37 40 38 39 42 45 51 54 56 58 60 59 60 59 55 59 60 63 62 64 68 65 68 75 84 87 92 93 95 97 94 97 104
11 11 14 11 16 13 14 17 18 23 28 33 34 36 40 43 39 42 44 51 55 58 57 59 59 60 63 65 59 62 62 68 68 71 77 71 78 86 94 98 100 101 107 102 102 100 93
15 14 13 11 17 20 23 22 24 28 29 31 33 37 43 43 43 45 49 54 58 61 61 63 63 63 68 68 67 68 69 72 78 78 86 83 85 97 105 106 107 110 107 102 92 86 81
24 22 20 20 18 23 23 24 27 29 30 33 34 36 43 42 46 49 51 54 60 60 62 64 63 65 69 71 69 73 75 78 84 83 87 86 91 104 111 114 117 114 110 98 87 83 81
27 25 25 24 23 24 27 27 28 29 30 33 36 42 42 47 49 51 54 58 63 62 65 65 66 71 72 72 71 75 78 79 84 86 87 93 99 108 118 119 122 114 112 101 92 87 88
28 29 27 26 29 28 31 33 34 35 37 36 39 42 44 48 50 55 59 62 64 64 68 72 74 74 74 77 76 78 82 85 84 88 92 97 105 114 119 123 123 118 111 99 95 93 91
33 33 34 33 36 36 37 37 38 39 38 39 42 45 48 51 52 57 61 64 65 68 71 75 76 76 77 79 80 84 84 86 91 94 100 108 110 120 127 132 124 121 112 102 98 95 91
35 35 35 36 39 38 39 40 38 39 39 41 46 49 52 54 56 61 64 67 71 74 78 80 82 82 80 80 84 90 90 95 97 101 102 108 117 129 132 132 128 119 111 104 102 99 96
41 40 40 40 41 42 42 44 44 45 44 48 50 52 55 57 60 64 66 69 73 75 79 84 84 85 81 83 89 92 97 99 102 105 110 120 129 137 130 137 132 124 114 109 104 103 103
48 46 46 46 49 48 47 45 47 49 51 51 54 55 58 60 64 66 71 76 78 82 85 89 91 86 86 90 91 99 99 101 105 110 120 125 134 137 136 134 136 123 114 111 108 106 105
44 49 49 50 51 52 53 54 55 56 57 58 59 61 61 63 64 69 74 79 82 86 89 93 91 90 90 94 99 102 103 106 111 119 123 132 137 138 137 138 135 121 116 114 112 109 103
44 45 46 48 50 51 53 56 58 59 61 62 63 63 67 68 71 76 80 83 87 89 92 93 94 92 95 97 101 104 107 111 119 123 131 135 137 143 135 143 135 124 117 116 114 107 95
48 46 48 50 49 52 52 55 57 58 61 65 65 67 69 72 75 78 82 87 91 93 95 96 93 98 101 101 104 108 109 115 121 128 136 135 138 145 148 142 138 129 119 117 116 103 90
53 53 50 50 51 54 56 56 59 61 63 67 69 70 73 76 80 81 86 89 94 94 97 98 102 102 105 104 105 109 114 120 123 133 137 142 148 151 147 144 133 125 121 121 111 96 89
64 62 56 55 55 57 59 63 64 63 66 69 73 74 76 77 82 84 89 91 92 97 98 105 105 102 104 106 106 111 115 121 128 134 139 147 151 154 150 140 126 121 121 118 107 92 83
67 65 61 59 58 60 61 65 66 67 68 71 73 74 78 83 84 87 90 92 95 102 105 106 104 100 104 105 109 113 116 124 131 138 143 150 155 150 148 135 124 118 119 113 100 88 80
70 71 70 66 62 62 65 65 67 69 71 75 78 80 80 83 86 89 91 93 100 110 105 106 104 102 104 105 111 116 119 126 135 142 147 154 156 154 143 130 124 119 118 106 91 84 76
71 74 73 74 70 69 69 71 72 74 76 79 81 82 85 87 89 92 93 99 104 106 105 101 102 104 105 107 112 118 127 129 136 143 148 154 156 151 139 126 121 118 113 97 87 78 71
72 73 74 75 76 73 76 76 80 81 82 83 85 89 90 92 94 96 98 105 107 104 101 104 103 104 106 114 115 121 130 133 142 143 151 154 151 146 132 124 121 118 108 92 83 75 65
79 76 76 76 80 79 78 79 80 83 86 87 88 91 93 95 97 99 105 107 105 103 98 99 101 103 109 115 121 126 133 137 144 147 150 158 151 139 124 120 118 113 101 88 79 70 64
81 82 81 79 80 82 83 83 84 85 88 90 92 96 98 100 100 104 105 105 95 97 98 103 105 106 117 120 123 130 134 141 145 149 156 149 146 130 120 117 116 108 93 85 74 68 63
Wind_Direction
302 313 324 332 337 335 317 316 319 325 334 343 353 358 2 0 358 355 347 343 343 343 344 342 339 342 338 335 331 330 326 323 318 311 297 284 276 279 286 287 288 288 292 296 299 298 298
305 314 328 340 339 350 355 354 6 11 22 20 20 18 10 5 360 355 351 354 350 351 351 344 345 342 339 335 337 338 335 322 315 306 293 285 283 285 287 288 292 299 304 303 298 297 300
342 2 20 47 56 66 58 55 57 54 46 37 26 20 13 2 360 351 352 360 6 358 353 3 359 350 348 346 339 337 335 328 311 304 290 289 286 294 297 303 304 306 306 303 300 298 297
85 89 76 77 68 75 71 61 51 39 32 22 15 15 7 2 2 354 355 358 354 4 1 357 357 3 358 351 345 342 335 328 320 310 300 298 296 298 303 305 303 302 300 297 297 298 299
90 82 85 90 83 73 58 45 37 25 16 9 6 357 355 355 357 359 356 353 357 354 357 358 355 353 358 354 353 343 335 329 322 314 307 306 306 306 305 304 302 299 301 299 298 299 299
83 76 87 79 56 40 35 11 8 355 6 6 360 2 356 353 355 347 346 347 348 351 353 356 353 353 349 350 349 345 341 336 330 322 316 312 309 306 307 305 308 306 304 303 300 298 296
90 78 60 28 17 322 338 342 348 349 349 354 354 356 356 353 347 341 343 340 344 343 345 349 349 350 350 343 345 345 339 338 333 332 325 319 314 316 312 308 308 309 305 302 302 301 297
61 46 6 340 321 276 288 294 324 335 340 344 342 348 348 347 343 337 338 341 345 344 339 343 341 341 343 342 339 339 341 337 336 334 331 321 314 317 315 318 317 316 313 309 305 302 297
270 268 272 300 296 294 297 297 301 320 329 332 334 335 339 341 338 336 334 336 340 342 339 341 341 337 338 340 336 337 336 338 334 334 334 323 319 325 325 324 322 318 314 313 305 303 298
270 272 268 278 302 318 312 318 312 317 321 326 327 329 331 334 336 336 332 339 339 341 337 336 334 333 334 334 335 334 334 334 335 333 334 328 328 329 329 328 325 317 318 313 308 304 300
269 277 281 283 292 289 294 302 301 307 327 333 328 326 329 333 335 337 336 336 340 339 336 334 331 330 331 332 332 333 333 333 334 331 334 332 328 330 331 330 324 318 320 317 314 309 305
275 276 279 281 286 297 304 309 309 311 318 322 322 325 328 331 331 332 333 334 337 337 335 333 330 327 329 330 331 331 333 331 334 330 333 331 329 329 330 329 324 327 325 322 318 313 310
276 273 281 286 293 303 307 308 310 313 312 315 320 323 327 324 325 328 330 332 333 334 335 332 328 329 327 329 328 328 330 329 330 328 331 331 329 331 330 326 328 329 328 324 319 317 312
281 281 286 281 291 292 302 304 305 309 312 316 317 319 321 321 323 328 330 331 330 332 335 335 336 333 326 325 327 328 330 330 331 330 331 330 331 331 330 331 331 330 329 326 322 317 313
277 281 283 281 287 292 297 300 305 307 310 312 313 316 317 318 321 326 327 328 329 331 331 333 333 332 329 326 325 327 329 332 333 331 331 331 330 331 333 334 335 333 331 325 321 317 315
278 281 284 288 289 291 296 300 303 305 306 306 309 314 315 316 319 323 324 326 328 330 331 332 333 331 328 326 327 330 330 333 332 330 332 331 331 333 336 334 336 334 330 326 323 320 318
271 276 282 286 289 291 293 297 301 303 304 307 308 312 313 313 317 319 322 323 324 326 329 331 332 331 328 328 329 330 331 332 331 332 330 333 333 336 336 336 336 333 329 327 325 324 322
271 276 278 288 289 290 292 295 298 299 301 304 308 309 310 313 316 317 319 323 324 325 327 331 332 330 328 328 330 331 331 330 332 331 333 335 337 339 336 338 338 333 330 327 326 326 324
275 276 284 285 287 288 291 294 297 301 303 305 307 309 313 315 315 316 320 322 322 325 326 328 329 329 327 329 331 330 330 330 330 333 334 336 339 339 337 338 337 333 331 329 328 329 327
272 276 282 286 291 295 295 297 298 298 303 303 306 308 312 316 320 322 323 323 324 323 324 327 327 327 328 328 328 329 330 329 332 334 335 338 339 337 337 336 336 333 331 330 331 331 327
270 274 278 281 287 292 297 299 302 305 308 308 311 310 314 319 318 319 321 323 324 323 325 326 325 326 327 326 327 328 329 331 333 334 337 339 337 338 337 336 336 333 332 332 333 331 328
267 271 274 280 286 289 292 294 299 302 304 307 309 311 313 315 317 319 320 322 323 323 324 325 325 326 327 326 327 328 331 333 334 335 337 338 338 338 338 336 335 334 333 333 333 332 329
271 270 274 279 283 286 290 293 294 297 301 303 306 308 309 310 312 316 319 321 322 323 324 324 325 324 325 326 326 328 331 333 334 336 337 337 338 338 338 337 335 335 332 333 333 332 331
268 273 275 277 281 285 289 292 294 295 298 300 302 305 307 309 312 316 318 319 320 322 323 324 323 323 324 324 326 327 331 332 334 335 336 337 337 338 337 337 335 334 334 335 333 333 331
269 270 273 274 276 281 285 288 291 292 295 297 300 302 305 308 312 315 316 319 320 320 324 322 323 323 323 323 324 327 330 332 333 334 336 337 336 336 336 336 334 334 335 335 333 333 332
269 271 275 278 278 282 283 287 289 292 294 296 298 300 303 307 312 312 315 317 320 321 321 321 321 322 321 323 325 328 331 333 334 334 335 336 335 336 335 335 334 335 335 335 333 334 333
269 272 274 275 279 283 284 288 290 293 295 299 300 302 304 309 311 312 314 315 319 320 320 321 319 319 319 321 325 329 330 332 334 335 335 334 334 336 335 334 333 335 335 335 335 334 335
266 268 271 275 278 282 282 284 288 292 294 297 300 302 304 308 309 310 313 316 317 318 318 319 319 319 319 324 327 329 331 330 331 334 334 333 334 336 336 334 333 334 335 335 335 334 335
266 269 272 276 277 281 281 283 286 288 291 295 297 300 305 306 307 312 311 314 314 315 317 318 317 316 320 324 326 328 331 329 331 330 333 333 334 334 335 333 333 335 335 334 335 335 335
Height
10803 10803 10803 10802 10800 10800 10799 10798 10798 10796 10795 10793 10792 10790 10787 10784 10781 10778 10774 10770 10764 10757 10750 10744 10740 10735 10730 10725 10721 10715 10711 10708 10704 10702 10699 10696 10694 10691 10687 10684 10681 10675 10673 10670 10665 10659 10655
10802 10802 10801 10801 10800 10799 10798 10797 10797 10796 10794 10792 10790 10788 10786 10783 10780 10777 10774 10769 10762 10754 10746 10741 10736 10731 10726 10720 10715 10710 10707 10703 10700 10697 10694 10691 10688 10684 10679 10674 10671 10667 10662 10656 10651 10644 10639
10800 10801 10801 10800 10799 10799 10799 10798 10797 10796 10794 10792 10791 10788 10786 10783 10780 10777 10772 10766 10759 10753 10747 10741 10735 10729 10722 10718 10711 10706 10701 10697 10694 10691 10688 10685 10680 10676 10671 10667 10661 10654 10648 10641 10634 10627 10620
10801 10800 10800 10799 10799 10800 10799 10798 10797 10797 10795 10793 10791 10788 10785 10782 10778 10774 10769 10765 10759 10753 10746 10739 10732 10725 10718 10713 10707 10700 10695 10692 10689 10685 10680 10676 10672 10667 10661 10654 10649 10641 10634 10625 10617 10607 10599
10802 10800 10800 10800 10800 10800 10799 10798 10797 10796 10794 10792 10789 10786 10782 10778 10775 10771 10766 10762 10756 10749 10743 10735 10728 10722 10714 10707 10701 10695 10690 10686 10682 10676 10672 10668 10663 10657 10650 10640 10633 10626 10615 10608 10599 10589 10578
10803 10802 10802 10802 10801 10800 10799 10797 10796 10795 10793 10790 10787 10784 10780 10776 10772 10767 10762 10757 10751 10743 10736 10730 10723 10716 10708 10702 10696 10689 10684 10678 10673 10669 10664 10658 10652 10645 10637 10627 10619 10609 10599 10588 10576 10569 10555
10803 10803 10803 10802 10800 10799 10797 10796 10794 10792 10790 10787 10784 10781 10777 10773 10768 10764 10759 10753 10746 10739 10729 10723 10717 10709 10703 10696 10689 10684 10679 10672 10666 10660 10654 10647 10639 10630 10622 10611 10599 10587 10577 10564 10551 10538 10528
10802 10801 10801 10800 10798 10797 10795 10793 10791 10789 10786 10783 10780 10777 10773 10769 10764 10759 10753 10747 10740 10734 10725 10718 10710 10702 10696 10689 10682 10676 10670 10664 10657 10648 10640 10631 10622 10612 10600 10589 10578 10563 10549 10536 10523 10509 10496
10800 10799 10799 10797 10795 10794 10792 10790 10788 10785 10782 10778 10775 10772 10768 10763 10758 10753 10747 10741 10734 10728 10719 10710 10703 10695 10688 10683 10674 10666 10658 10652 10644 10636 10626 10613 10603 10591 10581 10571 10556 10539 10525 10511 10496 10481 10461
10797 10796 10795 10794 10792 10791 10789 10787 10784 10781 10777 10774 10771 10766 10761 10756 10750 10744 10739 10733 10726 10718 10712 10703 10695 10686 10680 10673 10667 10657 10649 10638 10631 10621 10612 10600 10584 10575 10562 10546 10531 10514 10500 10483 10463 10446 10425
10793 10792 10791 10789 10788 10785 10784 10782 10779 10776 10773 10769 10765 10760 10754 10748 10743 10737 10731 10723 10717 10709 10703 10695 10687 10679 10669 10660 10652 10647 10636 10627 10616 10604 10592 10579 10565 10553 10538 10524 10508 10492 10471 10448 10426 10410 10395
10788 10787 10785 10784 10783 10781 10779 10777 10773 10770 10767 10764 10759 10753 10748 10742 10736 10729 10722 10715 10708 10700 10694 10686 10678 10670 10662 10651 10641 10630 10621 10611 10600 10587 10573 10559 10547 10535 10514 10495 10481 10462 10435 10414 10397 10381 10365
10781 10780 10780 10779 10777 10775 10773 10770 10767 10764 10759 10755 10751 10746 10740 10734 10728 10721 10714 10708 10699 10691 10684 10677 10668 10659 10649 10641 10630 10620 10611 10597 10583 10568 10554 10542 10530 10513 10496 10475 10452 10427 10405 10381 10366 10351 10335
10775 10774 10774 10772 10770 10768 10766 10763 10760 10757 10753 10749 10744 10739 10732 10726 10719 10712 10705 10697 10689 10680 10671 10664 10656 10646 10636 10626 10618 10606 10596 10584 10569 10553 10537 10525 10507 10490 10472 10449 10422 10399 10379 10357 10335 10324 10310
10769 10769 10768 10766 10764 10761 10759 10755 10752 10749 10745 10741 10737 10731 10724 10718 10711 10703 10696 10688 10678 10671 10662 10653 10644 10635 10624 10613 10600 10592 10580 10565 10551 10538 10520 10499 10486 10467 10443 10417 10393 10364 10345 10329 10312 10295 10281
10762 10761 10760 10758 10756 10754 10751 10748 10745 10741 10737 10733 10728 10721 10716 10710 10702 10694 10686 10676 10667 10659 10651 10640 10631 10621 10609 10598 10584 10570 10555 10546 10532 10517 10502 10484 10460 10441 10412 10386 10363 10341 10321 10301 10280 10260 10246
10752 10752 10752 10750 10748 10745 10743 10740 10736 10732 10729 10725 10720 10713 10706 10699 10692 10684 10675 10667 10658 10648 10639 10628 10617 10605 10593 10581 10568 10552 10538 10525 10512 10496 10479 10461 10440 10411 10387 10360 10333 10309 10290 10269 10250 10229 10204
10743 10743 10742 10741 10739 10736 10733 10730 10727 10723 10718 10714 10709 10703 10697 10690 10683 10673 10665 10655 10645 10635 10624 10614 10602 10589 10576 10562 10553 10535 10521 10506 10490 10476 10458 10438 10413 10389 10364 10337 10312 10287 10266 10244 10223 10203 10174
10732 10732 10732 10730 10729 10726 10722 10720 10715 10711 10708 10703 10698 10691 10686 10679 10671 10661 10652 10643 10632 10622 10611 10601 10588 10576 10561 10546 10533 10520 10506 10489 10472 10455 10432 10411 10391 10369 10343 10317 10294 10269 10244 10220 10198 10176 10149
10720 10719 10719 10719 10718 10716 10711 10707 10704 10700 10695 10691 10686 10680 10672 10666 10657 10649 10640 10630 10620 10609 10598 10587 10574 10561 10547 10533 10519 10501 10488 10470 10452 10431 10413 10390 10368 10347 10325 10302 10278 10250 10226 10199 10175 10155 10130
10709 10708 10706 10705 10703 10704 10701 10696 10692 10689 10684 10678 10674 10668 10660 10655 10646 10637 10628 10618 10606 10596 10584 10571 10559 10545 10534 10519 10504 10485 10470 10450 10431 10411 10391 10371 10348 10325 10296 10273 10248 10224 10200 10174 10152 10132 10111
10695 10696 10695 10693 10692 10690 10688 10684 10679 10677 10674 10667 10662 10655 10648 10641 10634 10625 10615 10605 10594 10582 10570 10557 10543 10531 10517 10502 10486 10467 10452 10433 10414 10392 10372 10353 10332 10307 10277 10250 10225 10202 10175 10151 10132 10114 10090
10682 10683 10682 10681 10679 10677 10674 10671 10668 10663 10658 10653 10648 10643 10635 10629 10621 10612 10602 10592 10580 10568 10557 10545 10530 10516 10502 10486 10470 10454 10437 10417 10396 10373 10353 10333 10310 10291 10262 10235 10210 10185 10162 10137 10113 10099 10081
10668 10670 10670 10669 10667 10663 10660 10658 10654 10649 10645 10639 10634 10628 10621 10613 10606 10597 10588 10579 10566 10555 10541 10530 10517 10504 10489 10472 10456 10438 10420 10401 10379 10359 10337 10314 10294 10271 10247 10219 10196 10174 10148 10122 10097 10086 10067
10654 10655 10655 10655 10654 10651 10647 10644 10640 10636 10631 10623 10617 10612 10607 10600 10592 10583 10574 10564 10552 10539 10526 10513 10501 10487 10472 10457 10441 10424 10405 10386 10363 10342 10320 10298 10275 10255 10229 10203 10178 10155 10134 10112 10091 10073 10055
10639 10639 10639 10640 10641 10640 10634 10631 10625 10622 10617 10609 10600 10593 10588 10585 10578 10568 10559 10550 10539 10526 10512 10499 10485 10470 10457 10441 10425 10407 10387 10370 10348 10325 10303 10280 10259 10236 10210 10186 10166 10145 10123 10103 10082 10066 10048
10623 10623 10624 10624 10623 10625 10619 10617 10612 10608 10602 10596 10586 10577 10572 10569 10561 10552 10545 10534 10525 10510 10498 10484 10472 10457 10441 10427 10410 10391 10370 10349 10331 10313 10291 10268 10244 10220 10191 10169 10145 10128 10107 10088 10072 10055 10043
10608 10607 10606 10608 10606 10607 10604 10601 10598 10593 10587 10582 10573 10562 10556 10553 10544 10535 10527 10518 10508 10496 10483 10470 10456 10443 10428 10411 10395 10374 10356 10333 10314 10296 10276 10252 10229 10205 10182 10159 10137 10116 10095 10076 10060 10046 10034
10592 10591 10590 10591 10589 10589 10587 10585 10583 10576 10573 10567 10560 10548 10542 10536 10526 10523 10512 10503 10494 10482 10467 10456 10442 10426 10412 10395 10378 10360 10342 10320 10301 10280 10259 10234 10213 10191 10169 10147 10124 10103 10084 10066 10051 10036 10023